Hourly Data Report for February 28, 2019

TORONTO CITY
ONTARIO
Current Station Operator: ECCC - MSC

43°40'00.000" N
79°24'00.000" W
112.50 m
6158355
71508
XTO

Download Data

Hourly Data (February 2019)
Hourly Data Report for February 28, 2019
TIME
LST
Temp Definition
°C
Dew Point Definition
°C
Rel Hum Definition
%
Precip. Amount Definition
mm

Wind Dir Definition
10's deg

Wind Spd Definition
km/h
Visibility Definition
km
Stn Press Definition
kPa
Hmdx Definition


Wind Chill Definition


Weather Definition


00:00 -11.7 -14.2 81 0.0       100.60     LegendNANA
01:00 -11.6 -14.0 83 0.0       100.64     LegendNANA
02:00 -12.3 -15.0 81 0.2       100.70     LegendNANA
03:00 -13.1 -16.0 79 0.0       100.79     LegendNANA
04:00 -13.4 -15.9 81 0.0       100.83     LegendNANA
05:00 -13.0 -16.1 78 0.0       100.97     LegendNANA
06:00 -14.0 -17.0 78 0.0       101.05     LegendNANA
07:00 -13.3 -16.1 80 0.0       101.09     LegendNANA
08:00 -12.8 -15.8 78 0.0       101.16     LegendNANA
09:00 -10.9 -15.5 69 0.0       101.21     LegendNANA
10:00 -9.4 -16.2 57 0.0       101.21     LegendNANA
11:00 -8.2 -15.7 55 0.0       101.19     LegendNANA
12:00 -6.8 -14.5 54 0.0       101.22     LegendNANA
13:00 -7.2 -13.9 59 0.0       101.18     LegendNANA
14:00 -6.9 -13.0 62 0.0       101.15     LegendNANA
15:00 -6.6 -12.6 62 0.0       101.12     LegendNANA
16:00 -6.8 -12.3 65 0.0       101.14     LegendNANA
17:00 -6.7 -12.0 66 0.0       101.09     LegendNANA
18:00 -6.9 -11.8 68 0.0       101.12     LegendNANA
19:00 -7.1 -12.0 68 0.0       101.11     LegendNANA
20:00 -6.6 -11.4 69 0.0       101.11     LegendNANA
21:00 -6.7 -11.3 70 0.0       101.09     LegendNANA
22:00 -6.2 -10.9 69 0.0       101.05     LegendNANA
23:00 -6.2 -11.2 68 0.0       101.01     LegendNANA

Notes on Data Quality.

Legend

  • E = Estimated
  • M = Missing
  • NA = Not Available*
  • [empty] = Indicates an unobserved value
Date modified: